"startDT [UTC]","vpos","CH4 [ppm]","stdev(CH4) [ppm]","CO2 [ppm]","stdev(CO2) [ppm]","H2O_reported [%]","stdev(H2O_reported)","CavityPressure [torr]","CavityTemp [C]","OutletValve","CH4_dry [ppm]","CO2_dry [ppm]","DasTemp [C]","EtalonTemp [C]","WarmBoxTemp [C]","MPVPosition","T_ECpre [C]","T_EC1 [C]","T_EC2 [C]","p_inlet [hPa]","p_in [hPa]","p_out [hPa]","T_inlet [C]","RH_inlet [%]","dwpt_inlet [C]","T_vent [C]","RH_vent [%]","dwpt_vent [C]","flow_vent [l min-1]","flow_inlet [l min-1]","dwpt_sample [C]","T_room [C]"
2015-10-24 00:00:00,0.0,1.92592,0.00047,397.161,0.038,0.1433,0.0015,139.997,45.000,31672.10143,1.92862,397.848,34.599,45.069,45.000,0.00,0.09,-272.75,-272.81,-7,521,-945,20.2,4.7,-21.3,20.5,4.8,-21.0,5.73,1.80,-12.0,26.7
2015-10-24 00:01:00,0.0,1.92830,0.00247,397.394,0.254,0.1398,0.0026,139.998,45.000,31672.66045,1.93079,398.054,34.620,45.069,45.000,0.00,0.09,-272.75,-272.81,-6,521,-945,20.2,4.6,-21.5,20.5,4.7,-21.1,5.73,1.97,-12.1,26.7
2015-10-24 00:02:00,0.0,1.93310,0.00401,397.660,0.297,0.1284,0.0026,139.998,45.000,31673.29885,1.93567,398.285,34.615,45.069,45.000,0.00,0.09,-272.75,-272.81,-6,521,-945,20.2,4.3,-22.3,20.5,4.5,-21.7,5.73,2.15,-12.0,26.8
2015-10-24 00:03:00,0.0,1.93108,0.00256,397.442,0.129,0.1345,0.0017,139.998,45.000,31674.95074,1.93360,398.084,34.616,45.069,45.000,0.00,0.09,-272.75,-272.81,-7,521,-945,20.2,4.4,-22.0,20.5,4.5,-21.7,5.73,1.83,-12.0,26.7
2015-10-24 00:04:00,0.0,1.92766,0.00126,397.377,0.116,0.1361,0.0021,140.002,45.000,31677.59647,1.93028,398.024,34.625,45.069,45.000,0.00,0.09,-272.75,-272.80,-7,521,-945,20.2,4.5,-21.9,20.5,4.5,-21.6,5.73,1.92,-12.0,26.7
2015-10-24 00:05:00,0.0,1.92624,0.00052,397.274,0.108,0.1379,0.0029,140.001,45.000,31675.32411,1.92892,397.938,34.607,45.069,45.000,0.00,0.09,-272.76,-272.81,-6,521,-946,20.2,4.5,-21.8,20.5,4.6,-21.5,5.73,2.16,-12.0,26.7
2015-10-24 00:06:00,0.0,1.92582,0.00056,397.153,0.098,0.1417,0.0025,140.000,45.000,31675.88778,1.92854,397.836,34.563,45.069,45.000,0.00,0.09,-272.75,-272.81,-6,521,-945,20.2,4.7,-21.4,20.5,4.7,-21.2,5.73,1.87,-12.0,26.8
2015-10-24 00:07:00,0.0,1.92520,0.00078,397.093,0.078,0.1456,0.0022,140.000,45.000,31673.72595,1.92801,397.791,34.571,45.069,45.000,0.00,0.09,-272.75,-272.81,-7,521,-945,20.2,4.8,-21.2,20.5,4.8,-20.9,5.73,1.88,-12.0,26.8
2015-10-24 00:08:00,0.0,1.92439,0.00058,397.006,0.035,0.1484,0.0016,140.003,45.000,31675.97917,1.92719,397.717,34.584,45.069,45.000,0.00,0.09,-272.75,-272.81,-7,521,-945,20.2,4.9,-21.0,20.5,4.9,-20.8,5.73,2.17,-12.0,26.8
2015-10-24 00:09:00,0.0,1.92422,0.00051,397.000,0.059,0.1470,0.0015,139.999,45.000,31675.37087,1.92702,397.704,34.569,45.069,45.000,0.00,0.09,-272.75,-272.81,-6,521,-945,20.2,4.9,-21.0,20.5,4.9,-20.7,5.73,1.89,-12.0,26.8
2015-10-24 00:10:00,0.0,1.92338,0.00044,396.937,0.044,0.1493,0.0021,139.999,45.000,31675.35030,1.92624,397.652,34.581,45.069,45.000,0.00,0.09,-272.75,-272.81,-7,521,-945,20.2,4.9,-20.9,20.5,4.9,-20.7,5.73,1.86,-12.0,26.7
2015-10-24 00:11:00,0.0,1.92352,0.00039,396.962,0.033,0.1485,0.0018,140.000,45.000,31676.28415,1.92631,397.673,34.573,45.069,45.000,0.00,0.09,-272.75,-272.80,-7,521,-945,20.2,4.9,-21.0,20.5,4.9,-20.7,5.73,2.16,-12.0,26.8
2015-10-24 00:12:00,0.0,1.92381,0.00043,396.998,0.031,0.1464,0.0017,139.999,45.000,31676.27403,1.92658,397.697,34.563,45.069,45.000,0.00,0.09,-272.75,-272.81,-6,521,-945,20.2,4.8,-21.1,20.5,4.9,-20.7,5.73,1.93,-12.0,26.8
2015-10-24 00:13:00,0.0,1.92553,0.00077,397.049,0.046,0.1443,0.0019,140.002,45.000,31677.97151,1.92825,397.743,34.563,45.069,45.000,0.00,0.09,-272.76,-272.81,-6,521,-945,20.2,4.8,-21.2,20.5,4.8,-20.8,5.73,1.83,-12.0,26.8
2015-10-24 00:14:00,0.0,1.92589,0.00062,397.027,0.025,0.1462,0.0013,139.997,45.000,31676.28995,1.92866,397.725,34.571,45.069,45.000,0.00,0.09,-272.76,-272.81,-7,521,-945,20.2,4.8,-21.1,20.5,4.8,-20.9,5.73,2.15,-12.0,26.8
2015-10-24 00:15:00,0.0,1.92676,0.00076,397.067,0.035,0.1456,0.0023,139.999,45.000,31675.62077,1.92947,397.765,34.564,45.069,45.000,0.00,0.09,-272.75,-272.81,-7,521,-945,20.2,4.8,-21.2,20.5,4.8,-20.8,5.73,1.97,-12.0,26.8
2015-10-24 00:16:00,0.0,1.92859,0.00090,397.048,0.025,0.1466,0.0017,139.999,45.000,31675.85562,1.93133,397.749,34.572,45.069,45.000,0.00,0.09,-272.75,-272.82,-6,521,-945,20.2,4.8,-21.2,20.5,4.8,-20.8,5.73,1.80,-12.0,26.7
2015-10-24 00:17:00,0.0,1.92950,0.00083,397.092,0.046,0.1446,0.0016,140.001,45.000,31676.91946,1.93221,397.784,34.571,45.069,45.000,0.00,0.09,-272.76,-272.81,-6,521,-945,20.2,4.8,-21.2,20.5,4.8,-20.8,5.73,2.13,-12.0,26.7
2015-10-24 00:18:00,0.0,1.93288,0.00160,397.102,0.036,0.1426,0.0016,140.000,45.000,31676.65955,1.93550,397.787,34.591,45.069,45.000,0.00,0.09,-272.75,-272.81,-7,521,-945,20.2,4.7,-21.4,20.5,4.8,-21.0,5.73,2.01,-12.0,26.7
2015-10-24 00:19:00,0.0,1.92954,0.00289,397.028,0.040,0.1438,0.0022,139.998,45.000,31677.33054,1.93249,397.716,34.606,45.069,45.000,0.00,0.09,-272.75,-272.81,-7,521,-945,20.2,4.7,-21.3,20.5,4.8,-21.0,5.73,1.79,-12.0,26.8
2015-10-24 00:20:00,0.0,1.92813,0.00072,397.165,0.104,0.1423,0.0022,140.000,45.000,31678.85508,1.93080,397.842,34.593,45.069,45.000,0.00,0.09,-272.77,-272.81,-6,521,-945,20.2,4.7,-21.4,20.5,4.8,-21.0,5.73,2.10,-12.0,26.8
2015-10-24 00:21:00,0.0,1.92814,0.00060,397.307,0.069,0.1389,0.0016,140.001,45.000,31677.86459,1.93079,397.974,34.585,45.069,45.000,0.00,0.09,-272.75,-272.81,-6,521,-945,20.2,4.6,-21.6,20.5,4.7,-21.2,5.73,2.04,-12.0,26.8
2015-10-24 00:22:00,0.0,1.92773,0.00071,397.273,0.070,0.1410,0.0016,139.999,45.000,31674.94253,1.93045,397.950,34.583,45.069,45.000,0.00,0.09,-272.74,-272.80,-7,521,-945,20.2,4.6,-21.6,20.5,4.7,-21.2,5.73,1.79,-12.0,26.7
2015-10-24 00:23:00,0.0,1.92776,0.00052,397.287,0.040,0.1418,0.0021,140.000,45.000,31676.21940,1.93044,397.964,34.579,45.069,45.000,0.00,0.09,-272.76,-272.81,-7,521,-945,20.2,4.6,-21.5,20.5,4.7,-21.1,5.73,2.09,-12.0,26.7
2015-10-24 00:24:00,0.0,1.92813,0.00087,397.303,0.080,0.1397,0.0021,139.997,45.000,31675.35146,1.93077,397.973,34.565,45.069,45.000,0.00,0.09,-272.75,-272.81,-6,521,-946,20.2,4.6,-21.6,20.5,4.7,-21.2,5.73,2.06,-12.0,26.7
2015-10-24 00:25:00,0.0,1.92598,0.00135,397.121,0.089,0.1441,0.0023,139.999,45.000,31676.31852,1.92882,397.814,34.563,45.069,45.000,0.00,0.09,-272.74,-272.81,-7,521,-945,20.2,4.7,-21.3,20.5,4.7,-21.1,5.73,1.79,-12.0,26.8
2015-10-24 00:26:00,0.0,1.92567,0.00070,397.113,0.061,0.1452,0.0019,139.999,45.000,31675.21301,1.92842,397.807,34.562,45.069,45.000,0.00,0.09,-272.76,-272.80,-7,521,-945,20.2,4.8,-21.2,20.5,4.8,-20.9,5.73,2.07,-12.0,26.8
2015-10-24 00:27:00,0.0,1.92535,0.00070,397.036,0.058,0.1462,0.0014,140.000,45.000,31676.43143,1.92808,397.735,34.560,45.069,45.000,0.00,0.09,-272.76,-272.82,-6,521,-945,20.2,4.8,-21.1,20.5,4.8,-20.8,5.73,2.08,-12.0,26.8
2015-10-24 00:28:00,0.0,1.92655,0.00039,397.121,0.036,0.1445,0.0023,140.000,45.000,31676.90231,1.92926,397.814,34.555,45.069,45.000,0.00,0.09,-272.74,-272.80,-6,521,-945,20.2,4.7,-21.2,20.5,4.8,-20.9,5.73,1.78,-12.0,26.8
2015-10-24 00:29:00,0.0,1.92663,0.00029,397.139,0.033,0.1444,0.0018,140.000,45.000,31676.75696,1.92941,397.831,34.558,45.069,45.000,0.00,0.09,-272.75,-272.81,-7,521,-945,20.2,4.7,-21.3,20.5,4.8,-21.0,5.73,2.05,-12.0,26.7
2015-10-24 00:30:00,0.0,1.92620,0.00039,397.123,0.027,0.1439,0.0016,140.000,45.000,31676.84633,1.92892,397.811,34.562,45.069,45.000,0.00,0.09,-272.76,-272.82,-7,521,-945,20.2,4.7,-21.3,20.5,4.8,-21.0,5.73,2.09,-12.0,26.8
2015-10-24 00:31:00,0.0,1.92635,0.00079,397.086,0.058,0.1436,0.0021,140.000,45.000,31676.33262,1.92912,397.776,34.560,45.069,45.000,0.00,0.09,-272.75,-272.81,-6,521,-945,20.2,4.7,-21.3,20.5,4.8,-21.0,5.73,1.79,-12.0,26.8
2015-10-24 00:32:00,0.0,1.92558,0.00043,397.014,0.040,0.1458,0.0013,139.999,45.000,31674.46549,1.92834,397.710,34.562,45.069,45.000,0.00,0.09,-272.75,-272.80,-6,521,-945,20.2,4.8,-21.2,20.5,4.8,-20.9,5.73,2.03,-12.0,26.8
2015-10-24 00:33:00,0.0,1.92501,0.00080,397.000,0.044,0.1456,0.0019,139.999,45.000,31675.44564,1.92784,397.700,34.559,45.069,45.000,0.00,0.09,-272.76,-272.81,-7,521,-945,20.2,4.8,-21.1,20.5,4.8,-20.8,5.73,2.11,-12.0,26.8
2015-10-24 00:34:00,0.0,1.92384,0.00046,396.951,0.033,0.1493,0.0015,140.001,45.000,31675.24822,1.92668,397.665,34.562,45.069,45.000,0.00,0.09,-272.75,-272.81,-7,521,-945,20.2,4.9,-20.9,20.5,4.9,-20.7,5.73,1.79,-12.0,26.8
2015-10-24 00:35:00,0.0,1.92472,0.00075,396.977,0.037,0.1488,0.0016,140.001,45.000,31676.49216,1.92747,397.688,34.563,45.069,45.000,0.00,0.09,-272.76,-272.80,-6,521,-945,20.2,4.9,-20.9,20.5,4.9,-20.6,5.73,2.01,-12.0,26.8
2015-10-24 00:36:00,0.0,1.92697,0.00091,397.015,0.048,0.1478,0.0016,140.001,45.000,31676.85469,1.92980,397.724,34.564,45.069,45.000,0.00,0.09,-272.75,-272.81,-6,521,-945,20.2,4.8,-21.0,20.5,4.9,-20.7,5.73,2.12,-12.0,26.8
2015-10-24 00:37:00,0.0,1.92455,0.00102,396.912,0.035,0.1489,0.0019,140.000,45.000,31676.89147,1.92735,397.624,34.563,45.069,45.000,0.00,0.09,-272.75,-272.81,-7,521,-945,20.2,4.9,-20.9,20.5,4.9,-20.7,5.73,1.80,-12.0,26.8
2015-10-24 00:38:00,0.0,1.92752,0.00148,396.997,0.038,0.1499,0.0016,140.000,45.000,31676.98971,1.93030,397.714,34.563,45.069,45.000,0.00,0.09,-272.75,-272.80,-7,521,-945,20.2,4.9,-20.9,20.5,4.9,-20.6,5.73,2.00,-12.0,26.8
2015-10-24 00:39:00,0.0,1.93159,0.00107,397.038,0.037,0.1480,0.0018,140.000,45.000,31677.44018,1.93427,397.746,34.564,45.069,45.000,0.00,0.09,-272.75,-272.81,-6,521,-945,20.3,4.9,-20.9,20.5,4.9,-20.7,5.73,2.12,-12.0,26.9
2015-10-24 00:40:00,0.0,1.92494,0.00409,396.957,0.046,0.1505,0.0029,139.999,45.000,31677.05762,1.92812,397.679,34.578,45.069,45.000,0.00,0.09,-272.75,-272.81,-7,521,-945,20.3,4.9,-20.8,20.5,4.9,-20.6,5.73,1.80,-12.0,26.9
2015-10-24 00:41:00,0.0,1.92312,0.00077,396.962,0.033,0.1528,0.0018,139.999,45.000,31678.02751,1.92599,397.692,34.596,45.069,45.000,0.00,0.09,-272.75,-272.81,-8,521,-945,20.3,5.0,-20.6,20.5,5.0,-20.4,5.73,2.00,-12.0,26.8
2015-10-24 00:42:00,0.0,1.92514,0.00145,397.047,0.030,0.1509,0.0014,139.999,45.000,31678.61186,1.92785,397.769,34.591,45.069,45.000,0.00,0.09,-272.75,-272.80,-6,521,-945,20.3,4.9,-20.8,20.5,5.0,-20.5,5.73,2.12,-12.0,26.8
2015-10-24 00:43:00,0.0,1.92378,0.00199,397.008,0.048,0.1517,0.0019,139.998,45.000,31678.62378,1.92687,397.735,34.596,45.069,45.000,0.00,0.09,-272.75,-272.81,-6,521,-945,20.3,4.9,-20.8,20.5,5.0,-20.5,5.73,1.80,-12.0,26.8
2015-10-24 00:44:00,0.0,1.92363,0.00171,397.023,0.050,0.1513,0.0022,140.000,45.000,31681.67830,1.92631,397.746,34.616,45.069,45.000,0.00,0.09,-272.76,-272.81,-7,521,-945,20.3,4.9,-20.7,20.5,5.0,-20.4,5.73,2.01,-12.0,26.9
2015-10-24 00:45:00,0.0,1.92370,0.00133,397.014,0.052,0.1501,0.0014,139.999,45.000,31682.21016,1.92671,397.735,34.613,45.069,45.000,0.00,0.09,-272.75,-272.81,-7,522,-946,20.3,4.9,-20.8,20.5,4.9,-20.5,5.73,2.12,-12.0,26.9
2015-10-24 00:46:00,0.0,1.92304,0.00066,396.961,0.030,0.1519,0.0013,140.003,45.000,31684.59295,1.92592,397.689,34.599,45.069,45.000,0.00,0.09,-272.75,-272.81,-6,522,-946,20.3,4.9,-20.7,20.6,5.0,-20.5,5.73,1.79,-12.0,26.9
2015-10-24 00:47:00,0.0,1.92347,0.00150,397.016,0.033,0.1525,0.0018,140.001,45.000,31685.63751,1.92636,397.746,34.617,45.069,45.000,0.00,0.09,-272.76,-272.81,-7,522,-946,20.3,4.9,-20.7,20.6,5.0,-20.4,5.73,2.02,-12.0,26.8
2015-10-24 00:48:00,0.0,1.92451,0.00118,397.056,0.028,0.1527,0.0013,139.999,45.000,31683.18648,1.92742,397.787,34.625,45.069,45.000,0.00,0.09,-272.75,-272.80,-8,522,-946,20.3,5.0,-20.7,20.6,5.0,-20.4,5.73,2.11,-12.0,26.8
2015-10-24 00:49:00,0.0,1.92285,0.00037,397.053,0.029,0.1531,0.0025,140.000,45.000,31683.88033,1.92577,397.786,34.624,45.069,45.000,0.00,0.09,-272.74,-272.80,-7,522,-946,20.3,5.0,-20.6,20.6,5.0,-20.4,5.73,1.79,-12.0,26.8
2015-10-24 00:50:00,0.0,1.92336,0.00067,397.057,0.032,0.1528,0.0012,140.001,45.000,31685.69464,1.92624,397.789,34.622,45.069,45.000,0.00,0.09,-272.76,-272.81,-6,522,-946,20.3,5.0,-20.7,20.6,5.0,-20.3,5.73,2.02,-12.0,26.8
2015-10-24 00:51:00,0.0,1.92310,0.00046,397.077,0.019,0.1521,0.0019,140.000,45.000,31685.84990,1.92598,397.805,34.621,45.069,45.000,0.00,0.09,-272.75,-272.81,-7,521,-946,20.4,5.0,-20.6,20.6,5.0,-20.4,5.73,2.11,-12.0,26.9
2015-10-24 00:52:00,0.0,1.92413,0.00068,397.091,0.034,0.1516,0.0016,140.000,45.000,31687.20048,1.92703,397.817,34.625,45.069,45.000,0.00,0.09,-272.74,-272.81,-7,522,-946,20.4,4.9,-20.7,20.7,5.0,-20.4,5.73,1.79,-12.0,26.9
2015-10-24 00:53:00,0.0,1.92756,0.00179,397.129,0.032,0.1509,0.0016,139.999,45.000,31687.09658,1.93026,397.852,34.625,45.069,45.000,0.00,0.09,-272.75,-272.81,-6,522,-946,20.4,4.9,-20.8,20.7,5.0,-20.4,5.73,2.03,-12.0,26.9
2015-10-24 00:54:00,0.0,1.92908,0.00074,397.087,0.028,0.1477,0.0018,140.002,45.000,31686.49063,1.93185,397.794,34.625,45.069,45.000,0.00,0.09,-272.75,-272.82,-6,522,-946,20.4,4.8,-20.9,20.7,4.9,-20.6,5.73,2.10,-12.0,26.9
2015-10-24 00:55:00,0.0,1.92582,0.00204,397.116,0.035,0.1498,0.0024,140.002,45.000,31688.05193,1.92887,397.833,34.621,45.069,45.000,0.00,0.09,-272.74,-272.81,-8,522,-946,20.4,4.9,-20.8,20.7,4.9,-20.5,5.73,1.78,-12.0,27.0
2015-10-24 00:56:00,0.0,1.92548,0.00108,397.146,0.041,0.1523,0.0017,140.001,45.000,31686.77962,1.92827,397.874,34.618,45.069,45.000,0.00,0.09,-272.75,-272.80,-7,522,-946,20.4,4.9,-20.7,20.7,4.9,-20.4,5.73,2.04,-12.0,27.0
2015-10-24 00:57:00,0.0,1.92746,0.00090,397.206,0.029,0.1509,0.0016,140.000,45.000,31688.82909,1.93029,397.930,34.623,45.069,45.000,0.00,0.09,-272.76,-272.82,-6,522,-946,20.5,4.9,-20.7,20.7,4.9,-20.4,5.73,2.08,-11.9,27.1
2015-10-24 00:58:00,0.0,1.92781,0.00257,397.271,0.050,0.1503,0.0014,139.997,45.000,31688.72883,1.93081,397.991,34.623,45.069,45.000,0.00,0.09,-272.75,-272.81,-7,522,-946,20.5,4.9,-20.8,20.7,4.9,-20.5,5.73,1.78,-12.0,27.1
2015-10-24 00:59:00,0.0,1.92514,0.00119,397.198,0.032,0.1519,0.0024,140.002,45.000,31691.25445,1.92789,397.926,34.610,45.069,45.000,0.00,0.09,-272.75,-272.80,-8,522,-946,20.5,4.9,-20.7,20.8,4.9,-20.4,5.73,2.06,-11.9,27.1
2015-10-24 01:00:00,0.0,1.92640,0.00163,397.195,0.035,0.1515,0.0013,139.998,45.000,31690.61999,1.92942,397.922,34.625,45.069,45.000,0.00,0.09,-272.75,-272.81,-7,522,-946,20.5,4.9,-20.7,20.8,4.9,-20.4,5.73,2.07,-11.9,27.1
2015-10-24 01:01:00,0.0,1.92492,0.00080,397.181,0.029,0.1518,0.0012,140.000,45.000,31692.28229,1.92778,397.908,34.656,45.069,45.000,0.00,0.09,-272.75,-272.81,-7,522,-946,20.5,4.9,-20.7,20.8,4.9,-20.4,5.73,1.77,-11.9,27.1
2015-10-24 01:02:00,0.0,1.92400,0.00059,397.157,0.043,0.1514,0.0020,139.997,45.000,31692.92510,1.92689,397.882,34.688,45.069,45.000,0.00,0.09,-272.75,-272.80,-8,522,-946,20.6,4.9,-20.7,20.8,4.9,-20.4,5.73,2.08,-11.9,27.1
2015-10-24 01:03:00,0.0,1.92351,0.00066,397.237,0.027,0.1514,0.0019,140.001,45.000,31692.91042,1.92637,397.963,34.692,45.069,45.000,0.00,0.09,-272.75,-272.81,-8,523,-946,20.6,4.9,-20.7,20.8,4.9,-20.4,5.73,2.04,-11.9,27.2
2015-10-24 01:04:00,0.0,1.92376,0.00047,397.229,0.032,0.1520,0.0017,139.999,45.000,31693.89027,1.92663,397.958,34.720,45.069,45.000,0.00,0.09,-272.75,-272.81,-6,523,-946,20.6,4.9,-20.7,20.8,4.9,-20.3,5.73,1.78,-11.9,27.2
2015-10-24 01:05:00,0.0,1.92648,0.00079,397.263,0.029,0.1509,0.0018,140.000,45.000,31695.27073,1.92925,397.985,34.746,45.069,45.000,0.00,0.09,-272.75,-272.80,-7,522,-946,20.6,4.8,-20.7,20.9,4.9,-20.4,5.73,2.10,-11.9,27.2
2015-10-24 01:06:00,0.0,1.92870,0.00244,397.328,0.048,0.1503,0.0020,139.997,45.000,31695.74075,1.93164,398.048,34.748,45.069,45.000,0.00,0.09,-272.75,-272.81,-8,523,-946,20.6,4.8,-20.8,20.8,4.9,-20.5,5.73,2.01,-11.9,27.2
2015-10-24 01:07:00,0.0,1.92504,0.00082,397.283,0.028,0.1515,0.0017,139.999,45.000,31696.23121,1.92793,398.009,34.750,45.069,45.000,0.00,0.09,-272.74,-272.81,-7,523,-946,20.6,4.9,-20.7,20.8,4.9,-20.4,5.73,1.79,-11.9,27.2
2015-10-24 01:08:00,0.0,1.92599,0.00087,397.277,0.046,0.1498,0.0020,139.999,45.000,31696.90891,1.92883,397.998,34.750,45.069,45.000,0.00,0.09,-272.75,-272.80,-6,522,-946,20.6,4.8,-20.8,20.9,4.9,-20.5,5.73,2.13,-11.9,27.2
2015-10-24 01:09:00,0.0,1.92586,0.00089,397.216,0.044,0.1502,0.0018,140.000,45.000,31697.50305,1.92868,397.934,34.751,45.069,45.000,0.00,0.09,-272.74,-272.81,-8,523,-946,20.6,4.8,-20.8,20.9,4.9,-20.5,5.73,1.97,-11.9,27.3
2015-10-24 01:10:00,0.0,1.92496,0.00203,397.198,0.064,0.1503,0.0011,139.998,45.000,31693.87593,1.92794,397.921,34.757,45.069,45.000,0.00,0.09,-272.75,-272.81,-7,523,-946,20.6,4.8,-20.8,20.9,4.9,-20.5,5.73,1.81,-11.9,27.3
2015-10-24 01:11:00,0.0,1.92405,0.00113,397.206,0.048,0.1510,0.0020,139.999,45.000,31695.01480,1.92686,397.929,34.755,45.069,45.000,0.00,0.09,-272.76,-272.81,-6,523,-946,20.7,4.8,-20.8,20.9,4.9,-20.5,5.73,2.15,-11.9,27.3
2015-10-24 01:12:00,0.0,1.92307,0.00054,397.175,0.042,0.1504,0.0015,139.999,45.000,31699.07770,1.92594,397.896,34.773,45.069,45.000,0.00,0.09,-272.75,-272.81,-7,523,-946,20.7,4.8,-20.7,20.9,4.9,-20.5,5.73,1.92,-11.9,27.2
2015-10-24 01:13:00,0.0,1.92311,0.00051,397.163,0.047,0.1508,0.0019,140.000,45.000,31697.91350,1.92598,397.886,34.784,45.069,45.000,0.00,0.09,-272.75,-272.80,-8,523,-946,20.6,4.8,-20.8,20.9,4.9,-20.5,5.73,1.84,-11.9,27.2
2015-10-24 01:14:00,0.0,1.92287,0.00054,397.144,0.029,0.1497,0.0020,140.000,45.000,31700.10788,1.92571,397.861,34.783,45.069,45.000,0.00,0.09,-272.75,-272.81,-7,523,-946,20.7,4.8,-20.8,20.9,4.9,-20.5,5.73,2.16,-11.9,27.2
2015-10-24 01:15:00,0.0,1.92415,0.00065,397.238,0.069,0.1489,0.0016,140.002,45.000,31699.97851,1.92695,397.949,34.790,45.069,45.000,0.00,0.09,-272.74,-272.81,-7,523,-946,20.6,4.8,-20.8,20.9,4.8,-20.6,5.73,1.87,-11.9,27.3
2015-10-24 01:16:00,0.0,1.92508,0.00061,397.262,0.049,0.1493,0.0014,140.000,45.000,31701.14214,1.92787,397.978,34.784,45.069,45.000,0.00,0.09,-272.75,-272.80,-8,523,-946,20.6,4.8,-20.9,20.9,4.8,-20.6,5.73,1.89,-11.9,27.3
2015-10-24 01:17:00,0.0,1.92380,0.00095,397.219,0.034,0.1488,0.0020,139.997,45.000,31698.21860,1.92668,397.933,34.797,45.069,45.000,0.00,0.09,-272.75,-272.81,-7,523,-946,20.6,4.8,-20.9,20.9,4.8,-20.6,5.73,2.16,-11.8,27.3
2015-10-24 01:18:00,0.0,1.92285,0.00055,397.174,0.041,0.1486,0.0012,140.002,45.000,31698.62840,1.92573,397.887,34.809,45.069,45.000,0.00,0.09,-272.75,-272.81,-6,523,-946,20.6,4.8,-20.9,20.9,4.9,-20.5,5.73,1.82,-11.9,27.2
2015-10-24 01:19:00,0.0,1.92247,0.00033,397.167,0.042,0.1492,0.0018,140.000,45.000,31696.97154,1.92531,397.880,34.811,45.069,45.000,0.00,0.09,-272.75,-272.80,-8,523,-946,20.6,4.8,-20.9,20.9,4.8,-20.6,5.73,1.96,-11.8,27.2
2015-10-24 01:20:00,0.0,1.92276,0.00030,397.175,0.030,0.1497,0.0020,139.998,45.000,31698.75267,1.92559,397.893,34.813,45.069,45.000,0.00,0.09,-272.75,-272.81,-8,523,-946,20.6,4.8,-20.9,20.9,4.8,-20.5,5.73,2.14,-11.8,27.2
2015-10-24 01:21:00,0.0,1.92309,0.00084,397.193,0.040,0.1500,0.0011,139.999,45.000,31699.34092,1.92591,397.910,34.820,45.069,45.000,0.00,0.09,-272.74,-272.81,-6,523,-945,20.6,4.8,-20.9,20.9,4.8,-20.5,5.73,1.78,-11.8,27.3
2015-10-24 01:22:00,0.0,1.92489,0.00116,397.231,0.056,0.1491,0.0011,140.001,45.000,31699.04235,1.92772,397.946,34.836,45.069,45.000,0.00,0.09,-272.74,-272.81,-7,523,-946,20.6,4.8,-20.9,20.9,4.8,-20.6,5.73,2.03,-11.8,27.3
2015-10-24 01:23:00,0.0,1.92329,0.00056,397.207,0.031,0.1506,0.0015,140.000,45.000,31700.07855,1.92615,397.929,34.851,45.069,45.000,0.00,0.09,-272.75,-272.81,-8,523,-945,20.7,4.8,-20.8,20.9,4.8,-20.5,5.73,2.08,-11.8,27.3
2015-10-24 01:24:00,0.0,1.92337,0.00064,397.229,0.052,0.1503,0.0018,140.001,45.000,31701.48090,1.92625,397.950,34.829,45.069,45.000,0.00,0.09,-272.76,-272.81,-6,523,-945,20.6,4.8,-20.8,20.9,4.9,-20.5,5.73,1.77,-11.8,27.2
2015-10-24 01:25:00,0.0,1.92331,0.00061,397.182,0.037,0.1495,0.0014,139.999,45.000,31699.96671,1.92610,397.898,34.820,45.069,45.000,0.00,0.09,-272.75,-272.80,-7,523,-944,20.6,4.8,-20.8,20.9,4.9,-20.5,5.73,2.09,-11.8,27.3
2015-10-24 01:26:00,0.0,1.92365,0.00123,397.189,0.050,0.1505,0.0016,139.998,45.000,31699.91375,1.92656,397.910,34.814,45.069,45.000,0.00,0.09,-272.75,-272.81,-8,523,-943,20.6,4.8,-20.8,20.9,4.9,-20.5,5.73,2.01,-11.8,27.3
2015-10-24 01:27:00,0.0,1.92379,0.00051,397.195,0.025,0.1509,0.0022,140.000,45.000,31701.81841,1.92662,397.917,34.824,45.069,45.000,0.00,0.09,-272.75,-272.81,-8,523,-943,20.6,4.8,-20.8,20.9,4.9,-20.5,5.73,1.78,-11.8,27.3
2015-10-24 01:28:00,0.0,1.92634,0.00111,397.344,0.067,0.1485,0.0014,140.000,45.000,31701.15734,1.92912,398.054,34.837,45.069,45.000,0.00,0.09,-272.75,-272.80,-7,524,-943,20.6,4.7,-20.9,20.9,4.8,-20.6,5.73,2.14,-11.8,27.3
2015-10-24 01:29:00,0.0,1.92541,0.00092,397.351,0.044,0.1485,0.0018,139.999,45.000,31701.13956,1.92818,398.063,34.874,45.069,45.000,0.00,0.09,-272.74,-272.80,-7,523,-947,20.6,4.7,-21.0,20.9,4.8,-20.7,5.73,1.93,-11.8,27.3
2015-10-24 01:30:00,0.0,1.92441,0.00085,397.274,0.044,0.1504,0.0015,140.000,45.000,31702.79673,1.92731,397.996,34.875,45.069,45.000,0.00,0.09,-272.75,-272.80,-9,523,-948,20.6,4.8,-20.8,20.9,4.8,-20.6,5.73,1.84,-11.8,27.2
2015-10-24 01:31:00,0.0,1.92481,0.00094,397.299,0.025,0.1506,0.0025,139.998,45.000,31702.52585,1.92767,398.022,34.875,45.069,45.000,0.00,0.09,-272.76,-272.81,-7,523,-946,20.6,4.8,-20.8,20.9,4.9,-20.5,5.73,2.16,-11.8,27.2
2015-10-24 01:32:00,0.0,1.92952,0.00177,397.344,0.046,0.1501,0.0017,140.002,45.000,31702.30956,1.93224,398.061,34.875,45.069,45.000,0.00,0.09,-272.74,-272.81,-6,523,-943,20.7,4.8,-20.8,20.9,4.9,-20.5,5.73,1.87,-11.8,27.2
2015-10-24 01:33:00,0.0,1.92471,0.00178,397.245,0.061,0.1501,0.0020,140.001,45.000,31703.99408,1.92774,397.967,34.875,45.069,45.000,0.00,0.09,-272.75,-272.81,-9,524,-948,20.6,4.8,-20.8,20.9,4.8,-20.5,5.73,1.90,-11.8,27.3
2015-10-24 01:34:00,0.0,1.92661,0.00226,397.242,0.058,0.1505,0.0015,140.001,45.000,31702.22175,1.92938,397.962,34.875,45.069,45.000,0.00,0.09,-272.75,-272.81,-11,524,-948,20.7,4.8,-20.7,20.9,4.9,-20.5,5.73,2.15,-11.8,27.3
2015-10-24 01:35:00,0.0,1.92414,0.00138,397.248,0.038,0.1511,0.0010,139.999,45.000,31704.34687,1.92708,397.972,34.875,45.069,45.000,0.00,0.09,-272.74,-272.81,-6,523,-944,20.7,4.8,-20.8,20.9,4.9,-20.5,5.73,1.80,-11.8,27.3
2015-10-24 01:36:00,0.0,1.92543,0.00085,397.310,0.036,0.1515,0.0020,139.999,45.000,31703.55902,1.92824,398.036,34.876,45.069,45.000,0.00,0.09,-272.75,-272.80,-8,523,-946,20.6,4.8,-20.7,20.9,4.9,-20.5,5.73,2.00,-11.8,27.3
2015-10-24 01:37:00,0.0,1.92865,0.00117,397.356,0.039,0.1508,0.0016,139.999,45.000,31703.68674,1.93139,398.076,34.878,45.069,45.000,0.00,0.09,-272.76,-272.82,-9,523,-943,20.7,4.8,-20.7,20.9,4.9,-20.5,5.73,2.10,-11.8,27.2
2015-10-24 01:38:00,0.0,1.92603,0.00174,397.367,0.057,0.1502,0.0011,140.001,45.000,31704.94535,1.92911,398.089,34.879,45.069,45.000,0.00,0.09,-272.75,-272.81,-5,523,-948,20.7,4.8,-20.8,20.9,4.9,-20.5,5.73,1.77,-11.8,27.2
2015-10-24 01:39:00,0.0,1.92408,0.00075,397.291,0.031,0.1526,0.0016,140.000,45.000,31703.05615,1.92692,398.021,34.875,45.069,45.000,0.00,0.09,-272.75,-272.80,-8,523,-948,20.7,4.8,-20.7,20.9,4.9,-20.5,5.73,2.08,-11.8,27.3
2015-10-24 01:40:00,0.0,1.92650,0.00153,397.303,0.040,0.1521,0.0017,139.999,45.000,31703.75267,1.92933,398.032,34.876,45.069,45.000,0.00,0.09,-272.75,-272.81,-6,523,-944,20.7,4.8,-20.7,20.9,4.9,-20.4,5.73,2.02,-11.8,27.3
2015-10-24 01:41:00,0.0,1.92506,0.00152,397.299,0.035,0.1521,0.0015,139.999,45.000,31702.48880,1.92807,398.030,34.880,45.069,45.000,0.00,0.09,-272.75,-272.81,-6,523,-946,20.7,4.8,-20.7,20.9,4.9,-20.4,5.73,1.78,-11.8,27.3
2015-10-24 01:42:00,0.0,1.92478,0.00089,397.278,0.043,0.1520,0.0017,139.999,45.000,31704.66162,1.92759,398.005,34.904,45.069,45.000,0.00,0.09,-272.75,-272.80,-7,523,-946,20.6,4.8,-20.7,20.9,4.9,-20.4,5.73,2.14,-11.8,27.2
2015-10-24 01:43:00,0.0,1.92507,0.00078,397.312,0.075,0.1509,0.0014,140.001,45.000,31706.42149,1.92795,398.033,34.906,45.069,45.000,0.00,0.09,-272.74,-272.81,-6,523,-944,20.7,4.8,-20.8,20.9,4.9,-20.4,5.73,1.93,-11.8,27.2
2015-10-24 01:44:00,0.0,1.92631,0.00058,397.476,0.039,0.1500,0.0014,140.002,45.000,31705.46346,1.92917,398.196,34.885,45.069,45.000,0.00,0.09,-272.75,-272.81,-7,522,-952,20.7,4.8,-20.8,20.9,4.9,-20.5,5.73,1.84,-11.7,27.2
2015-10-24 01:45:00,0.0,1.92600,0.00072,397.424,0.051,0.1511,0.0020,140.000,45.000,31707.09237,1.92890,398.149,34.884,45.069,45.000,0.00,0.09,-272.76,-272.81,-8,523,-946,20.7,4.8,-20.8,20.9,4.8,-20.5,5.73,2.16,-11.7,27.2